Airfield :
LOGIN :

Register | Disclaimer

   EN    FR    IT 

 










Legend :    VFR   Marginal VFR   IFR   Intensive IFR   Very Intensive IFR
Visi :
Ceiling :
>= 8 km
>= 3000ft
5 to 8 km
1000 to 3000 ft
1500m to 5 km
500 to 1000 ft
800 to 1500m
200 to 500 ft
< 800m
< 200 ft
Symbols :   Thunderstorms  Fog  Heavy snow  Heavy precipitations  Wind > 20 kt
SIGMETs :     Misc.  Thunderstorms  Icing  Turbulence  Mountain Waves  Volcanic Ashes






- Airport Elevation : 94 ft
- IATA code : MUH


HEMM - Mersa Matruh

CURRENT METAR :
  • 290500Z 23012KT CAVOK 14/M01 Q1015 NOSIG

EXPIRED METARs :
  • 290400Z 22013KT CAVOK 13/01 Q1014 NOSIG
  • 290300Z 22012KT CAVOK 14/01 Q1014 NOSIG

TAF TAF HEMM
Valid from the 29 at 06:00 until the 30 at 12:00 UTC


290500Z 2906/3012 23014KT CAVOK
TEMPO 2906/2915 4000 SA NSC



MET'MAP, your aeronautical weather chart ! - Copyright ORBIFLY December 2007 - Disclaimer

ORBIFLY MET'MAP TEAM :

Programming & Development : Alexandra Zaïnal
Concept & original design : Baudouin d'Aumeries
Assistance for programming : Marc-Olivier Méhu
Technical & hardware support : Manuel Goepfert

Contact : metmap@orbifly.com




SOURCES & CREDITS :

   NOAA